User: anonymous   Login
Location: Newark
(39.5667°N, 8.9833°E)
Time: 14:39:17
(UTC+00:00)
Language:

A-11 Canister half - Orbit

View from above orbital plane
View from above orbital plane
View from above satellite
View from above satellite

Ground track
Ground track

The orbit data is extracted from the following two-line orbital elements,

1    53U 60009E   19293.05713292 -.00000069  00000-0  16709-3 0  9998
2    53  47.2752 283.4067 0096702  87.5515 273.6340 12.17229902639167
Epoch (UTC): 20 October 2019 01:22:16
Eccentricity: 0.0096702
inclination: 47.2752°
perigee height: 1527 km
apogee height: 1682 km
right ascension of ascending node: 283.4067°
argument of perigee: 87.5515°
revolutions per day: 12.17229902
mean anomaly at epoch: 273.6340°
orbit number at epoch: 63916

The dashed part of the orbit path shows where the satellite is in the earth's shadow,  

DLR